Regional Weather Roundup
Issued by NWS Wakefield, VA

Home | Current Version | Previous Version | Graphics & Text | Print | Product List | Glossary On
Versions: 1 2 3 4 5 6 7 8 9 10 11 12 13 14 15 16 17 18 19 20 21 22 23 24 25 26 27 28 29 30 31 32 33 34 35 36 37 38 39 40 41 42 43 44 45 46 47 48 49 50
198
ASUS41 KAKQ 241016
RWRAKQ

REGIONAL WEATHER ROUNDUP
NATIONAL WEATHER SERVICE WAKEFIELD VA
600 AM EDT MON JUL 24 2017

Note: "fair" indicates few or no clouds below 12,000 feet with no
significant weather and/or obstructions to visibility. * = Denotes
station may not report precipitation (e.g., rain,snow,etc.),
thunder or fog.

VAZ042-051-052>054-056-241100-
NORTHERN VIRGINIA

CITY           SKY/WX    TMP DP  RH WIND       PRES   REMARKS
WASH NATIONAL  CLOUDY    78  72  81 W3        29.72S
DULLES         MOCLDY    73  71  93 NW3       29.74R
FORT BELVOIR   CLOUDY    76  70  80 CALM      29.74R
QUANTICO       LGT RAIN  80  73  79 SW8       29.75R
FREDERICKSBRG* MOCLDY    75  72  90 MISG      29.76R
STAFFORD*      LGT RAIN  75  71  88 S3        29.79R
WARRENTON      MOCLDY    76  68  76 CALM      29.74R
CULPEPER*      CLOUDY    77  70  79 CALM      29.76R
MANASSAS*      CLOUDY    75  71  87 CALM      29.74R
LEESBURG*      CLOUDY    73  73 100 N8        29.76S
WINCHESTER     CLOUDY    66  64  94 CALM      29.78R
FRONT ROYAL*   CLOUDY    73  66  78 S5        29.78R
LURAY*         CLOUDY    73  68  83 S3        29.79R
$$

VAZ048-049-060>072-079>083-241100-
CENTRAL AND SOUTH CENTRAL VIRGINIA

CITY           SKY/WX    TMP DP  RH WIND       PRES   REMARKS
RICHMOND       CLOUDY    72  71  97 S8        29.79R
CHESTERFIELD*  NOT AVBL
PETERSBURG*    CLOUDY    72  67  85 CALM      29.82R
HANOVER        CLOUDY    73  68  84 S8        29.79R
TAPPAHANNOCK*  CLOUDY    73  73 100 S7        29.78S
QUINTON*       FAIR      72  72 100 SW3       29.79R
CHARLOTTSVILLE PTCLDY    74  70  87 SW5       29.77R
GORDONSVILLE*  PTSUNNY   73  70  93 S3        29.77R
ORANGE*        MOCLDY    72  68  88 CALM      29.77R
LOUISA*        MOCLDY    72  68  88 S5        29.78R
BUMPASS*       PTSUNNY   71  71 100 S8G16     29.77R
FARMVILLE*     LGT RAIN  73  70  91 S7        29.79R
CREWE*         FAIR      73  68  86 S3        29.81R
FORT PICKETT*  FAIR      72  68  87 S7        29.83R
CHASE CITY*    FAIR      72  72 100 CALM      29.83R
CLARKSVILLE*   FAIR      70  70 100 S7        29.84R
SOUTH HILL*    MOCLDY    71  70  97 S8        29.89S
LAWRENCEVILLE* FAIR      71  69  93 S5        29.83R
EMPORIA*         N/A     72  68  88 SE3       29.85R
$$

VAZ088>098-241100-
SOUTHEAST VIRGINIA

CITY           SKY/WX    TMP DP  RH WIND       PRES   REMARKS
NORFOLK        CLEAR     73  71  93 S12       29.83R
VIRGINIA BEACH CLOUDY    73  68  84 SW10      29.83S
NORFOLK NAVAL  MOCLDY    75  69  81 SW12      29.84R
WEST POINT*    MOCLDY    76  67  75 S6        29.80S
SALUDA*        FAIR      76  70  81 SW9       29.78R
NEWPORT NEWS   PTCLDY    75  69  81 SW14      29.81S
LANGLEY AFB    PTCLDY    75  70  83 SW10      29.81S
FORT EUSTIS    PTCLDY    74  69  84 S9        29.79R
WILLIAMSBURG*  PTCLDY    77  70  78 CALM      29.82S
HR EXEC AP*    NOT AVBL
FRANKLIN*      PTCLDY    72  70  94 S3        29.85R
US460-WAKEFLD  MOCLDY    72  70  93 S5        29.82S
$$

VAZ020-022-025-037-045-241100-
WEST CENTRAL AND SOUTHWEST VIRGINIA

CITY           SKY/WX    TMP DP  RH WIND       PRES   REMARKS
STAUNTON*      CLOUDY    69  65  89 CALM      29.84R
WAYNESBORO*    CLOUDY    70  69  96 SW8       29.84R
HOT SPRINGS VA FOG       64  63  94 W22G28    29.97R VSB<1/4
LYNCHBURG      CLOUDY    70  69  97 SW6       29.83R
DANVILLE       CLOUDY    71  70  96 VRB5      29.84R
SOUTH BOSTON*  FAIR      72  70  95 S5        29.83R
MARTINSVILLE   CLOUDY    69  68  97 CALM      29.88R
ROANOKE        CLOUDY    71  68  90 W14G20    29.87R
BLACKSBURG     CLOUDY    67  65  96 CALM      29.95S
DUBLIN*        CLOUDY    69  64  82 W3        29.95R
MARION*        CLOUDY    69  65  88 W10G16    30.01R
HILLSVILLE*    CLOUDY    67  63  86 W5        29.96R
RICHLANDS*     CLOUDY    67  65  94 SW3       30.01R FOG
WISE*          FOG       68  68 100 W5        30.02R VSB 3/4
ABINGDON*      CLOUDY    70  70  99 W8        29.99R
$$

MDZ021>025-VAZ099-100-241100-
SOUTHERN MARYLAND AND THE DELMARVA PENINSULA

CITY           SKY/WX    TMP DP  RH WIND       PRES   REMARKS
PATUXENT RIVER CLOUDY    75  73  93 SW13      29.74R
BAY BRIDGE APT NOT AVBL
LEONARDTOWN    CLOUDY    73  70  88 SW7       29.77S
DOVER          PTCLDY    72  72 100 SE8       29.73R
GEORGETOWN     CLOUDY    77  73  87 CALM      29.76S
EASTON         MOCLDY    77  72  83 CALM      29.77R
CAMBRIDGE      CLEAR     77  72  83 SW9       29.75R
SALISBURY      MOCLDY    75  73  94 SW9       29.77
OCEAN CITY     MOCLDY    78  73  84 SW12      29.77R
WALLOPS ISLAND CLOUDY    77  72  84 SW9       29.78R
ACCOMACK*      MOCLDY    78  71  77 SW9       29.79R
$$

NCZ012>017-030>032-241100-
NORTH CENTRAL AND EASTERN NORTH CAROLINA

CITY           SKY/WX    TMP DP  RH WIND       PRES   REMARKS
ROANOKE RAPIDS FAIR      72  70  94 S6        29.85S
RALEIGH        MOCLDY    72  70  93 SW9       29.87R
ELIZABETH CITY MOCLDY    72  72 100 SW6       29.86S
AHOSKIE*         N/A     69  69  99 S3        29.86S FOG
EDENTON*       MOCLDY    77  73  87 SW8       29.88R
CURRITUCK*     PTCLDY   N/A N/A N/A SW6       29.87R
KILL DEVIL HLS CLOUDY    78  74  88 W5        29.86S
MANTEO         CLOUDY    77  74  91 W7        29.88R
CAPE HATTERAS  CLEAR     78  74  87 SW10G21   29.89R
TARBORO*       NOT AVBL
GOLDSBORO      CLOUDY    74  74 100 SW6       29.88R
WASHINGTON     PTCLDY    73  72  94 SW3       29.89S
GREENVILLE     MOCLDY    72  72 100 SW7       29.91R
NEW BERN       CLOUDY    78  76  93 SW7       29.91R
WILMINGTON     MOCLDY    79  76  90 SW7       29.91R
$$

VAZ048-241100-
ELSEWHERE

CITY           SKY/WX    TMP DP  RH WIND       PRES   REMARKS
HARRISBURG PA  LGT RAIN  73  71  93 W8        29.72R
BALTIMORE      MOCLDY    71  71 100 W3        29.72R
ANNAPOLIS      CLOUDY    75  75 100 S3        29.72R
ANDREWS AFB    CLOUDY    74  70  87 SW5       29.73R
PHILADELPHIA   CLOUDY    72  70  93 E8        29.72F
HENDERSON NC   PTCLDY    68  66  92 SW9       29.86R
GREENSBORO     CLOUDY    71  71 100 S9        29.87R
ROCKY MOUNT    CLOUDY    72  72 100 S7        29.87R
$$

VAZ100-241100-
MARINE

STATION/POSITION TIME  TEMP    WIND        PRES    WAVE   SWELL
                       AIR SEA DIR/SP/G            HT/PER HT/PER
                 (UTC) (F)     (DEG/KT/KT) (MB)    (FT/S) (FT/S)
BRANDYWINE LGT   0942   78     110/  1/  2 1007.6R
CAPE MAY NJ      0948   74 72  180/  8/ 10 1006.8R
LEWES DE         0948          180/  2/  3 1007.4R
15NM E FENWICK I 0950   75 76  210/ 10/ 12 1008.1F   3/ 8   3/ 8
OCEAN-CITY-INLET 0948   78 72  260/ 12/ 16 1008.3R
WACHAPREAGUE VA  0948   78 83  200/  6/  8 1008.6R
THOMAS POINT MD  1000   77 82  250/ 10/ 11   N/A
COVE POINT MD    0948   76     230/ 15/ 22 1007.6R
SOLOMONS ISLAND  0948   77 84  220/ 18/ 20   N/A
BISHOPS HEAD MD  0948   79 82  230/ 22/ 25 1007.4S
PINEY POINT MD   0948          240/  9/ 12   N/A
CAMBRIDGE MD     0942   79 87              1007.8R
LEWISETTA VA     0948   77 85  240/ 12/ 16 1007.6R
RAPPAHANNOCK LGT 0948          210/ 19/ 22 1009.2R
YORK RVR RNG VA  0948   78     240/ 16/ 18 1009.3R
YORKTOWN VA      0948   76 82  220/ 10/ 12 1008.7R
DOMINION TERM VA 0948   77     230/ 13/ 18 1009.7R
KIPTOPEKE VA     0948      78  220/ 14/ 19   N/A
CHES BAY BRIDGE  0948   75 79  220/ 16/ 18 1009.7R
CAPE HENRY VA    0948   74     230/  9/ 14   N/A
WILLOUBY STN VA  0948   75     220/ 15/ 18 1009.6R
S CRANEY ISL VA  0948   74     200/  9/ 11 1009.8R
CAPE HENRY BUOY  0930      59                N/A     3/ 8
64NM E OF VA BCH 0950   78 79  250/ 12/ 14 1011.5R   4/ 7   3/ 7
DUCK PIER NC     0948   79 61  240/ 14/ 17 1011.0R
44100 DUCK FRF   0905      75                N/A     3/ 9
44056 DUCK FRF   1000      63                N/A     2/ 9
OREGON INLET NC  0942   81 82  230/ 18/ 22 1011.4R
HATTERAS NC      0948   78 77  240/ 11/ 16 1012.1R
DIAMOND SHLS NC  0950   83 84  240/ 23/ 27 1011.7R   8/ 7   2/ 9
CAPE LOOKOUT NC  0900   81     230/ 15/ 19 1012.1R
$$




USA.gov is the U.S. government's official web portal to all federal, state and local government web resources and services.